Погода Атырау

Погода Атырау : погода сейчас, прогноз погоды и архив. Всё, что Вы хотите узнать о погоде Атырау!

Хотите узнать прогноз погоды в Атырау? Тогда Вам сюда: Погода в Атырау

Поиск расширенной информации на нашем сайте:

Другие новости

Новости СМИ2

Главная страница сайта

Новости сайта

02.10.2013

Напоминаем, что на нашем новом сайте вы можете получить высокодетализированные прогнозы погоды по пунктам России, СНГ и мира (включающие важные для авиации метеовеличины, такие как направление и скорость ветра, видимость, явления погоды, количество и форма облачности, нижняя и верхняя граница облачности), а также ознакомиться с разнообразными материалами по авиационной метеорологии и подборкой полезных ссылок на эту тему.

Сайт Метеоцентр.Азия посвящён разработке технологий оптимизации авиаметеорологического обслуживания, включая проектирование и перспективное создание нескольких автоматизированных авиаметеорологических систем:
- система выпуска высокодетальных прогностических карт явлений погоды для нижнего воздушного пространства по России и ближнему зарубежью;
- система верификации прогнозов TAF (выпускаемых синоптиками официальных АМСГ РФ и ближнего зарубежья) и AUTOTAF (выпускаемых сайтом Метеоцентр.Азия) - выявление ошибок, онлайн-сопоставление с фактической погодой METAR, автоматическое внесение коррективов в прогнозы при резком отклонении фактической погоды от прогноза, подсчёт оправдываемости прогнозов по элементам и в целом;
- система обработки, анализа и отображения авиаметеорологической информации для применения провайдерами метеорологической информации.

Рекомендуем: Здесь. Продажа реактивов для бассейна. Предложение.

Погода Атырау - сегодня

Время (UTC), дата Ветер
(°,м/с) 
Видим.   Явления Облачность Т
(°С)
Тd
(°С)
f(%) Тe
(°С)
Pmin
(гПа)
dP
(гПа)
Po
(мм)
O2
(г/м3)
Тmin Tmax R s Состояние
почвы
00 24.03.17 150 (ЮВ) 20000 м    ясно 
+3.2 +1.1 86 +4  1025.7  771  307           
03 24.03.17 200 (Ю) 20000 м    9/4 600 м верхняя 
[Sc|Ci fib]
+4.3 +2.6 89 +5  1026.1  0.4  771  306           
06 24.03.17 180 (Ю) 20000 м    8/0 средняя, верхняя 
[Ac cuf|Ci fib]
+8 +3 71 +9  1026.9  0.7  772  302  +2.5         
09 24.03.17 240 (ЮЗ) 20000 м    8/6 600 м верхняя 
[Cu med, cong|Ci fib]
+12.5 +1.9 48 +13  1026.1  -0.8  771  297           
12 24.03.17 240 (ЮЗ) 10 км    8/6 600 м верхняя 
[Cu med, cong|Ci fib]
+14.2 +0.9 40 +14  1025.1  -1  771  295           
15 24.03.17 240 (ЮЗ) 20000 м    8/8 600 м 
[Cu med, cong]
+7.3 +2.5 72 +7  1025.5  0.4  771  302    +14.6       
18 24.03.17 240 (ЮЗ) 20000 м    6/0 средняя 
[Ac cuf]
+3.5 +1.4 86 +4  1026.2  0.8  771  307    +14.6       
21 24.03.17 260 (З) 4000 м  дымка  8/8 600 м 
[Sc]
+0.8 -0 94 1026.5  -0.7  771  310           
00 25.03.17 250 (З) 0500 м  туман  ?/?  
+2 +1.5 96 +1  1024.1  -1.4  770  308           
03 25.03.17 240 (ЮЗ) 4000 м  дымка{туман}  10/10 300 м 
[Frnb]
+2.4 +1.4 93 +2  1023.2  -1  769  307           
06 25.03.17 210 (ЮЗ) 20000 м  {туман}  6/0 средняя, верхняя 
[Ac lent|Ci ing]
+6.8 -0.2 61 +7  1022.1  -1.2  768  302  +0.7         
09 25.03.17 200 (Ю) 20000 м    6/0 верхняя 
[Cs]
+8.7 -0.7 52 +7  1020.1  -2  767  300           
12 25.03.17 240 (ЮЗ) 20000 м    8/3 600 м средняя, верхняя 
[Cu hum|Ac lent|Ci fib]
+8.4 +1.1 60 +7  1018.1  -2  765  299           
15 25.03.17 210 (ЮЗ) 20000 м    9/0 
[Sc]
+5.6 +1.3 74 +4  1016.6  -1.5  764  302    +9.2       
18 25.03.17 180 (Ю) 20000 м    10/10 600 м 
[Sc]
+4.7 +2.2 84 +4  1016.1  -0.4  764  302    +9.2       
21 25.03.17 170 (Ю) 20000 м    10/10 600 м 
[Sc]
+4.9 +2.2 83 +3  1015.3  -0.8  763  302           
00 26.03.17 230 (ЮЗ) 20000 м    10/10 600 м 
[Sc]
+6.6 +4 83 +6  1014.4  -1  763  299           
03 26.03.17 240 (ЮЗ) 2000 м  слаб. дождь  10/10 600 м 
[Sc]
+5.7 +4.5 92 +5  1014.7  0.3  763  300      0.0     
06 26.03.17 240 (ЮЗ) 4000 м  слаб. дождь  10/10 600 м 
[Ns]
+6.3 +4.9 91 +6  1015.5  0.8  763  300  +4.6    0.0     
09 26.03.17 290 (З) 4000 м  слаб. дождь  10/10 600 м 
[Ns]
+6.7 +4.6 86 +6  1015.9  0.4  764  300           
12 26.03.17 040 (СВ) 4000 м  слаб. дождь  10/10 600 м 
[Ns]
+5.1 +3.7 91 +6  1016.2  0.4  764  302           
15 26.03.17 040 (СВ) 4000 м  дымка{дождь}  10/10 600 м 
[Sc]
+4.5 +3 90 +5  1016.2  764  302    +6.9  0.8     
18 26.03.17 070 (В) 4000 м  дымка{дождь}  10/10 600 м 
[Sc]
+4.3 +2.6 89 +5  1016.3  0.1  764  303    +6.9  0.8     
21 26.03.17 360 (С) 4000 м  дымка  10/10 600 м 
[Sc]
+3.9 +2.4 90 +5  1015.5  -0.8  763  303           
00 27.03.17 040 (СВ) 4000 м  слаб. дождь  10/10 600 м 
[Sc]
+3.4 +2.1 91 +4  1014.5  -1  763  303           
Время (UTC), дата Ветер
(°,м/с) 
Видим.   Явления Облачность Т
(°С)
Тd
(°С)
f(%) Тe
(°С)
Pmin
(гПа)
dP
(гПа)
Po
(мм)
O2
(г/м3)
Тmin Tmax R s Состояние
почвы

Для получения пояснительной информации подведите курсор к названию столбца.

ПОГОДА Атырау - архив

Всё, что Вы хотите узнать о погоде Атырау - удобно и подробно!

Выберите нужную дату (начиная с 1 января 2015* года) и нажмите кнопку "Найти".
Будут отображены архивные сводки погоды по пункту Атырау, начиная с указанной даты.


Отображать данные в формате CSV (для использования в таблицах Excel)


Внимание! Наш архив погоды предназначен исключительно для личного некоммерческого использования в познавательных целях. Если Вам необходимы официальные справки о состоянии погоды (для производственных, юридических, коммерческих и т.п. целей), обращайтесь в органы Росгидромета.

*Примечание: данная дата относится к архиву по метеостанциям СССР (Россия, СНГ, Балтия).
Архив по метеостанциям Зарубежной Европы и Азии (кроме Китая) хранится 10 дней, по другим регионам земного шара (Китай, Африка, Америка, Австралия, Океания) - 1 день.

Атырау - район местоположения метеостанции


Название, широта, долгота, высота метеостанции:
Атырау (город) 47.1°ш. 51.7°д. -23 м над ур. моря [Казахстан]

Дополнительная информация

В oтличие oт бoльшинства пoгoдных сайтoв мы публикуем пoдрoбную метеoинфoрмацию в детальнoм прoфессиoнальнoм фoрмате.

Характеристики температуры и влажнoсти вoздуха измеряются на высoте 2 м в тени вдали oт зданий и деревьев.
Скoрoсть ветра измеряется на высoте 10 м (на урoвне рoста челoвека скoрoсть ветра ниже в 1.5-2 раза). Если метеoстанция нахoдится в гoрoде или в лесу, тo скoрoсть ветра занижена на 2-4 м/с пo сравнению с oткрытым местoм. Скoрoсть ветра над акватoриями крупных рек и oзёр, а также на вершинах хoлмoв на 2-5 м/с выше, чем в oбычных услoвиях.
Атмoсфернoе давление в разных тoчках местнoсти мoжет значительнo oтличаться oт давления на метеoстанции, в зависимoсти oт услoвий рельефа (при пoдъёме на 10 м давление пoнижается примернo на 1 мм рт.ст.).